This is the latest recevied weather packets stored in our database for station/object HUGOCO. If no packets are shown the sender has not sent any weather packets the latest 10 day(s).
| Time | Temp. | Humidity | Pressure | Rain* | Wind** | Luminosity | Snow |
|---|---|---|---|---|---|---|---|
| 1777863963 | 17.22° C | 26% | 1008.3 hPa | 0 mm | - | - | - |
| 1777863663 | 16.67° C | 27% | 1008.3 hPa | 0 mm | - | - | - |
| 1777863363 | 17.22° C | 28% | 1008.2 hPa | 0 mm | - | - | - |
| 1777863064 | 17.78° C | 26% | 1008.2 hPa | 0 mm | - | - | - |
| 1777862763 | 18.33° C | 24% | 1008.2 hPa | 0 mm | - | - | - |
| 1777862464 | 18.89° C | 22% | 1008.1 hPa | 0 mm | - | - | - |
| 1777862163 | 19.44° C | 20% | 1008 hPa | 0 mm | - | - | - |
| 1777861864 | 19.44° C | 20% | 1008 hPa | 0 mm | - | - | - |
| 1777861812 | 20° C | 20% | 1008 hPa | 0 mm | - | - | - |
| 1777861564 | 20° C | 20% | 1008 hPa | 0 mm | - | - | - |
| 1777861264 | 20° C | 18% | 1008 hPa | 0 mm | - | - | - |
| 1777860964 | 19.44° C | 20% | 1007.9 hPa | 0 mm | - | - | - |
| 1777860664 | 20° C | 20% | 1007.9 hPa | 0 mm | - | - | - |
| 1777860364 | 21.11° C | 15% | 1007.8 hPa | 0 mm | - | - | - |
| 1777860064 | 20.56° C | 15% | 1007.7 hPa | 0 mm | - | - | - |
| 1777859764 | 20.56° C | 16% | 1007.6 hPa | 0 mm | - | - | - |
| 1777859464 | 20.56° C | 16% | 1007.6 hPa | 0 mm | - | - | - |
| 1777859164 | 20.56° C | 16% | 1007.6 hPa | 0 mm | - | - | - |
| 1777858864 | 20° C | 17% | 1007.5 hPa | 0 mm | - | - | - |
| 1777858564 | 20° C | 19% | 1007.6 hPa | 0 mm | - | - | - |
| 1777858264 | 20.56° C | 17% | 1007.5 hPa | 0 mm | - | - | - |
| 1777857964 | 20.56° C | 17% | 1007.6 hPa | 0 mm | - | - | - |
| 1777857664 | 20.56° C | 16% | 1007.5 hPa | 0 mm | - | - | - |
| 1777857364 | 20.56° C | 17% | 1007.5 hPa | 0 mm | - | - | - |
| 1777857064 | 21.11° C | 18% | 1007.6 hPa | 0 mm | - | - | - |
* Rain latest hour (hover to see other rain measurements)
** Current wind speed in m/s (hover to see current wind gust speed)